{"data":{"norad_id":66384,"epoch":"2026-09-20T14:36:38.804544Z","epoch_age_seconds":83995,"freshness":"FRESH","line1":"1 66384U 25257E   26263.60878246  .00026733  00000+0  79919-3 0  9996","line2":"2 66384  53.1599  29.0130 0001058  73.9944 286.1175 15.34413165 49619","mean_motion":15.34413165,"eccentricity":0.0001058,"inclination_deg":53.1599,"raan_deg":29.013,"arg_perigee_deg":73.9944,"mean_anomaly_deg":286.1175,"bstar":0.00079919,"rev_number":4961,"period_min":93.846952883776,"perigee_km":461.9403545749,"apogee_km":463.38786809006,"semimajor_km":6840.8011113325,"source":"CELESTRAK","updated_at":"2026-09-21T09:00:35.885746Z"}}